• Processing (Info)

  • MPEC 2022-L49 : 2022 GF17

    The following Minor Planet Electronic Circular may be linked-to from your own Web pages, but must not otherwise be redistributed electronically.

    A form allowing access to any MPEC is at the bottom of this page.


    Read MPEC 2022-L48 Read MPEC 2022-L50


    M.P.E.C. 2022-L49                                  Issued 2022 June 6, 20:44 UT
    
         The Minor Planet Electronic Circulars contain information on unusual
             minor planets and routine data on comets.  They are published
        on behalf of Division F of the International Astronomical Union by the
              Minor Planet Center, Smithsonian Astrophysical Observatory,
                              Cambridge, MA 02138, U.S.A.
    
                 Prepared using the Tamkin Foundation Computer Network
    
                                  MPC@CFA.HARVARD.EDU
                URL https://www.minorplanetcenter.net/    ISSN 1523-6714
    
                                    2022 GF17                                
    
    
    Observations:
         K22G17F* C2022 04 09.50136913 54 19.287+23 31 47.33         21.07wUEL049F52
         K22G17F  C2022 04 09.52972913 54 10.716+23 34 51.50         20.91wUEL049F52
         K22G17F  C2022 04 09.54399413 54 06.510+23 36 22.36         21.19wUEL049F52
         K22G17F  C2022 04 09.60134413 53 50.390+23 42 18.08         20.87GVEL049F52
         K22G17F  C2022 04 09.60214813 53 50.172+23 42 22.93         21.31GVEL049F52
         K22G17F KC2022 04 10.32408213 51 41.627+24 49 31.48         22.46GVEL049I52
         K22G17F KC2022 04 10.32548013 51 41.346+24 49 38.39         21.45GVEL049I52
         K22G17F KC2022 04 10.32687813 51 40.900+24 49 45.23         21.31GVEL049I52
         K22G17F  C2022 04 10.39678113 51 33.054+24 55 50.23         21.21GVEL049F52
         K22G17F  C2022 04 10.39741113 51 32.889+24 55 53.84         21.91GVEL049F52
    
    Observer details:
    F52 Pan-STARRS 2, Haleakala.  Observers J. Bulger, T. Lowe, A. Schultz, I.
        Smith, K. Chambers, T. Dukes.  Measurers K. Chambers, S. Chastel, T. de
        Boer, J. Fairlamb, H. Gao, M. Huber, C.-C. Lin, E. Magnier, Y.
        Ramanjooloo, R. Wainscoat, R. Weryk.  1.8-m Ritchey-Chretien + CCD.
    I52 Steward Observatory, Mt. Lemmon Station.  Observer G. J. Leonard.
        Measurers E. J. Christensen, G. A. Farneth, J. B. Fazekas, D. C. Fuls, A.
        R. Gibbs, A. D. Grauer, H. Groeller, J. K. Hogan, R. A. Kowalski, S. M.
        Larson, G. J. Leonard, D. Rankin, R. L. Seaman, A. Serrano, F. C. Shelly,
        K. W. Wierzchos.
    
    Orbital elements:
    2022 GF17                                                Earth MOID = 0.0053 AU
    Epoch 2022 Aug. 9.0 TT = JDT 2459800.5                  Veres                   
    M 134.21607              (2000.0)            P               Q                  
    n   0.72439157     Peri.  269.86596     -0.24786404     -0.96474442             
    a   1.2278740      Node   195.38565     +0.96718793     -0.24115929             
    e   0.4234059      Incl.   19.48456     +0.05577578     -0.10540587             
    P   1.36           H   26.65          G   0.15           U   9                  
    Residuals in seconds of arc
    220409 F52  0.2+  0.1-    220409 F52  0.0   0.0     220410 F52  0.1+  0.3-
    220409 F52  0.1-  0.1+    220410 I52  0.2+  0.0     220410 F52  0.1-  0.3+
    220409 F52  0.0   0.1-    220410 I52  0.9+  0.0
    220409 F52  0.1+  0.0     220410 I52  0.7-  0.0
    
    Ephemeris:
    2022 GF17                a,e,i = 1.23, 0.42, 19                  q = 0.7080
    Date    TT    R. A. (2000) Decl.     Delta      r    Elong.  Phase     V
    2022 05 07    13 38 38.3 +28 03 39   0.3031  1.2313   131.6    37.8    26.0
    ...
    2022 05 22    13 43 29.3 +25 08 48   0.4559  1.3254   124.6    38.9    27.1
    ...
    2022 05 30    13 48 00.0 +23 17 01   0.5412  1.3720   120.8    39.4    27.6
    ...
    2022 06 05    13 52 11.5 +21 48 08   0.6069  1.4051   117.9    39.6    27.9
    2022 06 06    13 52 57.2 +21 33 01   0.6179  1.4105   117.5    39.7    27.9
    2022 06 07    13 53 44.0 +21 17 50   0.6290  1.4158   117.0    39.7    28.0
    ...
    2022 06 13    13 58 45.7 +19 45 40   0.6964  1.4470   114.1    39.8    28.2
    ...
    2022 06 21    14 06 18.4 +17 41 05   0.7880  1.4860   110.3    39.9    28.6
    ...
    2022 07 06    14 22 46.3 +13 46 46   0.9640  1.5519   103.1    39.6    29.1
    
    M. P. C. Staff               (C) Copyright 2022 MPC           M.P.E.C. 2022-L49
    


    Read MPEC 2022-L48 Read MPEC 2022-L50


    MPEC number:

    Enter an MPEC number in one of the following forms:

    • 1997-B01 (the full form)
    • J97B01 (the packed version of the full form)
    • B01 (the abbreviated form)